Weather History for Lahr, Germany

Change the Weather History Date:

Tuesday, May 29, 2012

  Actual Average (LFST) Record (LFST)
Temperature  
Mean Temperature 67 °F -  
Max Temperature 81 °F 70 °F 87 °F (1999)
Min Temperature 53 °F 51 °F 42 °F (1997)
Cooling Degree Days 2    
Growing Degree Days 17 (Base 50)    
Moisture  
Dew Point 50 °F    
Average Humidity 45    
Maximum Humidity 85    
Minimum Humidity 20    
Precipitation  
Precipitation 0.00 in - - ()
Sea Level Pressure  
Sea Level Pressure 29.97 in    
Wind  
Wind Speed 4 mph ()    
Max Wind Speed 13 mph    
Max Gust Speed -    
Visibility 13.6 miles    
Events      
Averages and records for this station are not official NWS values.
T = Trace of Precipitation, MM = Missing Value Source: Averaged Metar Reports

Daily Weather History Graph

Daily Weather History Graph

Search for Another Location

Airport:

Trip Planner

Search our weather history database for the weather conditions in past years. The results will help you decide how hot, cold, wet, or windy it might be!

Date:

Astronomy

May. 29, 2012 Rise Set
Actual Time 5:33 AM CEST 9:19 PM CEST
Civil Twilight 4:53 AM CEST 9:59 PM CEST
Nautical Twilight 3:59 AM CEST 10:53 PM CEST
Astronomical Twilight 2:40 AM CEST 12:13 AM CEST
Moon 2:01 PM CEST (5/29) 1:51 AM CEST (5/29)
Length of Visible Light 17h 05m
Length of Day
15h 45m
First Quarter, 56% of the Moon is Illuminated
May 29
First Quarter
Jun 4
Full
Jun 11
Last Quarter
Jun 19
New
Jun 27
First Quarter

Hourly Weather History & Observations

Time (CEST) Temp. Dew Point Humidity Pressure Visibility Wind Dir Wind Speed Gust Speed Precip Events Conditions
12:00 AM 68 °F 53 °F 47% 29.95 in 25 mi South 4.5 mph - -  
1:00 AM 64 °F 53 °F 57% 29.95 in 22 mi SW 4.5 mph - -  
2:00 AM 63 °F 53 °F 63% 29.95 in 19 mi WSW 2.2 mph - -  
3:00 AM 60 °F 52 °F 68% 29.96 in 17 mi SW 2.2 mph - -  
4:00 AM 58 °F 53 °F 77% 29.96 in 14 mi WSW 2.2 mph - -  
5:00 AM 54 °F 51 °F 85% 29.97 in 11 mi SW 2.2 mph - -  
6:00 AM 55 °F 51 °F 84% 29.97 in 17 mi WSW 2.2 mph - -   Partly Cloudy
7:00 AM 57 °F 51 °F 76% 29.98 in 17 mi West 2.2 mph - -   Scattered Clouds
7:50 AM 64.4 °F 51.8 °F 64% 29.98 in - Variable 1.2 mph - N/A   Clear
8:00 AM 63 °F 53 °F 60% 29.98 in 18 mi NE 2.2 mph - -   Scattered Clouds
8:20 AM 64.4 °F 53.6 °F 68% 29.98 in - South 1.2 mph - N/A   Clear
8:50 AM 68.0 °F 51.8 °F 56% 30.01 in - West 2.3 mph - N/A   Clear
9:00 AM 67 °F 51 °F 47% 29.98 in 19 mi NNE 2.2 mph - -  
9:20 AM 69.8 °F 55.4 °F 60% 30.01 in - Variable 3.5 mph - N/A   Clear
9:50 AM 69.8 °F 53.6 °F 56% 30.01 in - West 3.5 mph - N/A   Clear
10:00 AM 68 °F 51 °F 45% 29.98 in 18 mi North 2.2 mph - -   Clear
10:20 AM 69.8 °F 55.4 °F 60% 30.01 in 6.2 mi Variable 2.3 mph - N/A   Partly Cloudy
10:50 AM 71.6 °F 53.6 °F 53% 30.01 in 6.2 mi NNW 3.5 mph - N/A   Partly Cloudy
11:00 AM 70 °F 52 °F 41% 29.98 in 18 mi West 4.5 mph - -   Scattered Clouds
11:20 AM 71.6 °F 53.6 °F 53% 30.01 in 6.2 mi North 3.5 mph - N/A   Partly Cloudy
11:50 AM 73.4 °F 50.0 °F 44% 29.98 in 6.2 mi North 4.6 mph - N/A   Partly Cloudy
12:00 PM 73 °F 50 °F 33% 29.97 in 25 mi NNW 6.7 mph - -   Scattered Clouds
12:20 PM 73.4 °F 46.4 °F 38% 29.98 in 6.2 mi West 4.6 mph - N/A   Partly Cloudy
12:50 PM 75.2 °F 46.4 °F 36% 29.98 in - Variable 4.6 mph - N/A   Clear
1:00 PM 75 °F 43 °F 21% 29.97 in 31 mi NW 4.5 mph - -   Scattered Clouds
1:20 PM 77.0 °F 50.0 °F 39% 29.98 in - North 5.8 mph - N/A   Clear
1:50 PM 75.2 °F 46.4 °F 36% 29.98 in - WNW 9.2 mph - N/A   Clear
2:00 PM 76 °F 45 °F 23% 29.95 in 37 mi North 6.7 mph - -   Scattered Clouds
2:20 PM 77.0 °F 46.4 °F 34% 29.98 in - NW 5.8 mph - N/A   Clear
2:50 PM 78.8 °F 51.8 °F 39% 29.98 in - Variable 5.8 mph - N/A   Clear
3:00 PM 77 °F 47 °F 24% 29.95 in 40 mi NNE 8.9 mph - -   Scattered Clouds
3:20 PM 78.8 °F 51.8 °F 39% 29.98 in - NW 6.9 mph - N/A   Clear
3:50 PM 78.8 °F 51.8 °F 39% 29.95 in - NNW 9.2 mph - N/A   Clear
4:00 PM 76 °F 47 °F 25% 29.94 in 40 mi NNW 8.9 mph - -   Scattered Clouds
4:20 PM 77.0 °F 44.6 °F 32% 29.95 in - NW 9.2 mph - N/A   Clear
4:50 PM 78.8 °F 50.0 °F 36% 29.95 in - NW 6.9 mph - N/A   Clear
5:00 PM 79 °F 47 °F 22% 29.93 in 40 mi North 8.9 mph - -   Scattered Clouds
5:20 PM 78.8 °F 44.6 °F 30% 29.95 in - North 9.2 mph - N/A   Clear
5:50 PM 78.8 °F 48.2 °F 34% 29.95 in - NNW 6.9 mph - N/A   Clear
6:00 PM 79 °F 45 °F 20% 29.92 in 37 mi NNW 4.5 mph - -   Scattered Clouds
6:20 PM 78.8 °F 46.4 °F 32% 29.95 in - WNW 3.5 mph - N/A   Clear
6:50 PM 77.0 °F 48.2 °F 36% 29.95 in - NNW 8.1 mph - N/A   Clear
7:00 PM 78 °F 47 °F 23% 29.92 in 37 mi NNW 6.7 mph - -   Scattered Clouds
7:20 PM 75.2 °F 50.0 °F 41% 29.95 in - NNW 9.2 mph - N/A   Clear
7:50 PM 75.2 °F 50.0 °F 41% 29.95 in - North 12.7 mph - N/A   Clear
8:00 PM 75 °F 51 °F 32% 29.93 in 22 mi North 8.9 mph - -   Scattered Clouds
9:00 PM 70 °F 52 °F 42% 29.95 in 37 mi NE 6.7 mph - -   Scattered Clouds
10:00 PM 67 °F 52 °F 49% 29.96 in 22 mi NE 2.2 mph - -  
11:00 PM 64 °F 53 °F 57% 29.98 in 19 mi NW 2.2 mph - -